Location: Unspecified
(0.0000°N, 0.0000°E)
Time: 22:24:27
(UTC+00:00)

Tiros 1 despin weight - Visible Passes

Search period start: 25 January 2021 00:00
Search period end: 04 February 2021 00:00
Orbit: 594 x 641 km, 48.2° (Epoch: 25 January)

Date Brightness Start Highest point End Pass type
(mag) Time Alt. Az. Time Alt. Az. Time Alt. Az.
31 Jan ? 19:01:54 10° NNE 19:03:19 13° NE 19:03:19 13° NE visible
01 Feb ? 19:16:17 10° NNW 19:20:17 34° NE 19:21:23 29° E visible
02 Feb ? 19:32:12 10° NW 19:36:35 82° SW 19:39:59 17° SE visible
03 Feb ? 19:49:08 10° WNW 19:52:55 28° SW 19:56:43 10° S visible
